Lapse_Rate
8.1 8.0 8.0 8.0 8.0 7.9 7.6 7.1 6.7 6.6 6.5 6.4 6.2 6.7 7.0 7.2 7.2 7.1 6.9 7.0 6.9 7.0 7.1 7.2 7.2 7.4 7.8 7.7 7.3 7.4 7.4 7.3 6.9 6.5 6.3 6.5 6.6 7.1 7.1 7.3 7.4 7.3 7.1 6.7 6.7 6.8 6.8 7.5 7.7 7.4 7.6 7.6 7.6 7.4
8.3 8.2 8.2 8.3 8.3 8.3 8.1 8.0 7.5 6.8 6.5 6.4 6.3 6.8 6.9 7.6 7.4 7.2 6.9 6.8 6.9 6.9 7.1 7.3 7.4 7.8 7.9 7.8 7.7 7.6 7.3 7.4 7.1 6.9 6.7 6.8 6.8 7.0 7.1 6.9 7.3 7.3 7.5 7.4 7.1 7.5 7.5 7.6 7.6 7.6 7.2 7.4 7.4 7.3
8.1 8.1 8.1 8.1 8.1 8.3 8.1 8.0 7.9 7.1 6.5 6.4 6.5 6.8 7.2 7.2 7.4 7.1 7.0 7.0 7.1 7.1 7.1 7.0 7.2 7.7 7.5 7.6 7.5 7.4 7.4 7.4 7.2 6.9 6.8 6.6 6.7 6.7 6.7 7.0 7.1 7.2 7.2 7.1 7.1 7.1 7.2 7.5 7.3 7.4 7.7 7.1 7.2 7.2
8.0 8.0 8.1 8.0 8.0 8.1 7.8 7.8 7.8 6.8 6.4 6.5 6.7 7.2 7.6 7.7 7.3 7.1 7.2 7.1 7.0 7.0 7.0 7.2 7.5 7.5 7.8 7.5 7.5 7.4 7.2 6.9 6.9 7.0 6.8 6.6 6.7 6.6 6.7 6.8 6.6 7.1 6.6 6.9 6.9 6.9 7.0 7.2 7.1 7.2 7.1 6.8 7.2 7.1
8.4 8.1 7.9 7.5 7.8 7.8 7.8 7.6 7.0 6.5 6.5 6.7 7.4 7.1 7.1 7.2 7.2 7.1 7.0 7.2 7.2 7.1 6.8 7.1 7.5 7.7 7.5 7.5 7.3 7.2 7.2 7.1 6.9 6.6 6.7 6.7 7.0 6.6 6.8 6.7 7.3 7.4 7.0 7.0 7.2 7.1 7.2 7.1 7.0 7.2 7.4 7.1 7.2 7.0
8.1 7.7 7.3 7.6 7.7 7.6 6.9 6.8 6.8 6.6 7.3 7.1 7.2 7.0 7.1 7.2 7.2 7.0 7.1 6.8 7.1 7.1 6.8 7.0 7.5 7.7 7.6 7.6 7.7 7.4 7.2 7.1 6.6 6.6 6.8 6.8 7.1 6.6 6.4 6.7 7.3 7.3 7.4 7.0 6.9 7.1 7.3 7.2 7.3 7.2 7.3 7.3 7.3 7.2
8.0 7.8 6.9 7.2 7.7 7.5 7.3 7.2 7.2 7.1 7.2 7.2 7.2 7.2 7.3 7.4 7.2 6.9 7.1 7.4 7.1 7.0 7.0 7.2 7.4 7.5 7.6 7.5 7.5 7.5 7.1 6.9 6.7 6.4 6.4 6.7 6.7 6.5 6.4 6.6 7.6 7.7 7.4 7.1 7.4 7.5 7.3 7.2 7.3 7.2 7.2 7.3 7.3 7.2
7.6 7.4 7.3 7.5 7.7 7.5 7.5 7.0 7.4 7.5 7.3 7.3 7.3 7.4 7.4 7.4 7.3 7.3 7.1 7.1 7.0 7.0 7.1 7.0 7.6 7.8 7.7 7.5 7.1 7.1 7.1 7.0 6.9 6.6 6.5 6.6 6.5 6.6 6.2 7.6 8.0 7.9 7.5 7.2 7.1 7.3 7.2 7.2 7.2 7.1 7.2 7.2 7.3 7.2
7.6 7.5 7.6 7.4 7.4 7.5 7.4 7.2 7.3 7.2 7.3 7.3 7.2 7.3 7.4 7.3 7.2 7.2 7.0 6.9 7.0 7.0 7.1 7.4 7.6 7.4 7.6 7.5 7.3 7.2 7.0 6.9 6.9 6.9 7.2 6.4 6.1 6.4 7.6 7.8 7.6 7.4 7.3 7.1 6.9 7.2 7.0 6.9 6.9 7.0 7.1 7.2 7.2 7.0
7.4 7.4 7.4 7.4 7.3 7.4 7.3 7.3 7.3 7.3 7.2 7.2 7.3 7.3 7.2 7.2 7.0 6.9 6.8 6.9 6.8 7.0 7.2 7.5 7.7 7.4 7.4 7.4 7.2 7.1 6.9 6.8 6.7 7.3 7.0 6.3 6.6 7.6 7.6 7.5 7.2 6.9 6.9 7.1 7.1 7.1 7.0 6.8 6.8 6.8 7.1 7.1 7.0 6.8
7.6 7.5 7.4 7.4 7.4 7.5 7.5 7.6 7.6 7.7 7.6 7.4 7.2 7.3 7.2 6.9 7.0 7.0 7.0 6.9 7.0 7.1 7.4 7.9 7.7 7.4 7.4 7.2 7.1 7.2 7.3 7.2 7.0 7.3 7.1 6.9 7.1 7.4 7.4 7.2 6.7 6.8 6.8 7.0 7.0 6.9 6.8 6.8 7.0 7.0 7.0 7.0 6.9 6.7
7.7 7.7 7.8 7.8 7.7 7.6 7.7 7.6 7.6 7.5 7.4 7.3 7.7 7.5 7.1 6.9 7.1 7.1 7.1 7.2 7.2 7.3 7.7 7.8 7.7 7.7 7.3 7.1 6.9 7.3 7.2 7.1 7.2 7.3 7.3 7.1 7.2 7.3 6.9 7.0 7.0 6.9 7.1 6.9 6.8 6.8 6.8 6.9 7.0 6.9 6.9 6.8 6.6 6.5
8.0 7.8 7.6 7.6 7.6 7.6 7.5 7.4 7.3 7.2 7.2 7.0 7.0 7.2 7.2 7.1 7.3 7.4 7.2 7.4 7.7 7.7 7.8 7.5 7.5 7.6 7.3 7.2 6.9 7.2 7.3 7.2 7.1 7.0 7.1 7.2 7.4 7.0 6.9 6.8 6.9 6.9 7.0 6.8 6.9 6.8 6.9 6.9 6.9 6.8 6.7 6.6 6.7 6.4
8.0 7.8 7.7 7.7 7.5 7.5 7.5 7.4 7.4 7.3 7.4 7.4 7.3 7.5 7.7 7.6 7.6 7.5 7.7 7.6 7.4 7.4 7.4 7.3 7.4 7.2 7.4 7.2 7.1 7.4 7.3 7.2 6.9 6.7 7.1 7.6 7.3 6.9 6.9 6.9 6.8 6.6 6.7 6.7 6.7 6.8 6.7 6.8 6.8 6.8 6.7 6.6 6.5 6.3
8.2 8.0 7.8 7.6 7.7 7.6 7.6 7.6 7.4 7.4 7.6 7.6 7.8 7.8 7.7 7.5 7.5 7.6 7.4 7.4 7.3 7.2 7.3 7.5 7.3 7.3 7.3 7.2 7.2 7.1 6.9 6.9 6.8 7.1 7.3 7.2 7.1 7.0 6.9 6.9 6.6 6.8 7.0 6.9 6.9 6.7 6.7 6.7 6.6 6.6 6.5 6.5 6.5 6.4
8.0 8.0 7.9 7.7 7.6 7.7 7.5 7.6 7.6 7.6 7.6 7.6 7.6 7.5 7.4 7.6 7.5 7.4 7.4 7.4 7.4 7.5 7.4 7.3 7.3 7.2 7.2 7.1 7.0 7.0 6.9 7.1 7.3 7.4 7.2 7.2 7.1 7.0 6.9 6.6 6.6 6.7 6.8 6.7 6.5 6.5 6.5 6.5 6.6 6.6 6.6 6.6 6.6 6.5
8.3 8.2 7.8 7.5 7.6 7.5 7.5 7.6 7.6 7.6 7.6 7.6 7.6 7.6 7.6 7.5 7.2 7.1 7.3 7.5 7.3 7.2 7.2 7.4 7.2 7.2 7.2 7.1 7.0 7.1 7.0 7.2 7.1 7.3 7.4 7.3 7.3 6.9 6.8 6.5 6.5 6.6 6.7 6.8 6.8 6.7 6.6 6.6 6.6 6.6 6.7 6.7 6.7 6.7
8.1 7.9 7.6 7.4 7.5 7.3 7.4 7.5 7.4 7.4 7.3 7.2 7.1 6.9 7.2 7.1 7.0 7.1 7.2 6.9 6.9 7.1 7.3 7.4 7.1 7.0 6.9 6.9 7.0 7.0 7.0 7.1 7.2 7.4 7.3 7.4 7.3 7.1 6.8 6.6 6.6 6.6 6.7 6.7 6.9 6.9 7.0 7.0 6.8 6.8 6.8 6.9 6.9 6.7
7.8 7.7 7.5 7.6 7.6 7.4 7.5 7.5 7.4 7.2 7.2 7.1 6.9 6.8 6.8 6.8 6.8 7.0 7.0 7.3 7.0 6.9 7.4 7.2 7.0 7.0 7.1 7.2 7.3 7.3 7.2 7.2 7.3 7.4 7.5 7.5 7.4 7.1 6.9 7.0 7.0 6.8 6.8 6.8 6.8 6.9 6.9 6.8 6.8 6.8 6.8 6.8 6.8 6.7
7.5 7.6 7.6 7.4 7.2 7.2 7.3 7.4 7.2 7.0 7.4 7.3 7.1 7.1 7.0 6.9 7.0 6.9 6.9 7.0 7.1 7.0 7.2 7.2 7.2 7.2 7.2 7.2 7.2 7.2 7.2 7.4 7.5 7.5 7.5 7.4 7.2 7.0 6.9 6.9 6.9 6.8 6.7 6.8 6.9 6.8 6.9 6.8 6.8 6.8 6.8 7.0 7.0 7.0
7.3 7.2 7.2 7.2 7.1 7.1 7.1 7.1 7.0 7.3 7.4 7.4 7.4 7.4 7.2 7.0 7.0 7.0 7.0 7.0 6.9 6.9 7.1 7.1 7.0 7.1 7.2 7.2 7.2 7.2 7.3 7.4 7.4 7.5 7.4 7.2 6.9 6.9 6.9 6.9 6.9 6.9 6.9 6.9 6.9 6.9 6.9 6.8 6.9 6.9 7.0 7.0 7.0 7.0
7.0 7.1 7.0 7.1 7.2 7.2 7.2 7.1 7.1 7.2 7.3 7.2 7.2 7.1 6.8 6.9 7.1 7.1 7.0 6.8 6.9 7.2 7.2 7.1 7.0 7.0 7.2 7.2 7.2 7.2 7.2 7.2 7.2 7.2 7.1 7.0 6.9 7.0 7.0 7.0 7.0 7.0 7.0 7.0 7.0 7.0 7.0 7.0 7.0 7.0 7.0 7.0 7.0 7.0
7.2 7.2 7.1 7.2 7.2 7.2 7.3 7.1 7.0 7.0 6.8 6.7 6.8 6.6 6.7 6.9 7.1 7.1 6.7 6.9 7.1 7.1 7.0 7.0 7.0 7.0 7.0 7.1 7.1 7.2 7.2 7.1 7.1 7.1 7.0 7.0 7.0 7.0 7.0 7.0 7.1 7.1 7.1 7.1 7.1 7.1 7.1 7.1 7.1 7.1 7.1 7.0 7.0 7.0
7.4 7.3 7.2 7.1 7.2 7.2 7.3 7.2 7.0 6.8 6.8 6.8 6.7 6.5 6.5 6.6 6.8 6.7 6.6 6.9 7.2 7.0 6.9 6.9 6.9 6.9 6.9 7.0 7.1 7.2 7.2 7.1 7.1 7.2 7.1 7.1 7.0 6.9 6.9 7.0 7.1 7.1 7.1 7.1 7.1 7.2 7.2 7.1 7.1 7.1 7.1 7.1 7.0 6.9
7.5 7.6 7.6 7.6 7.5 7.5 7.4 7.3 7.2 6.9 6.8 6.6 6.6 6.5 6.5 6.5 6.4 6.3 6.4 6.7 7.1 7.0 6.9 6.9 6.9 6.9 7.0 7.0 7.1 7.2 7.1 7.1 7.1 7.1 7.1 7.0 7.0 7.0 7.0 7.1 7.0 7.1 7.1 7.1 7.1 7.1 7.1 7.0 7.0 7.0 7.1 7.0 6.8 6.7
7.5 7.6 7.6 7.7 7.7 7.5 7.4 7.4 7.4 7.3 7.1 6.8 6.6 6.5 6.6 6.4 6.2 6.3 6.6 7.0 6.9 6.8 6.9 6.9 7.0 7.0 7.1 7.1 7.1 7.1 7.1 7.1 7.1 7.1 7.1 7.0 6.9 6.9 7.0 7.0 7.0 6.9 6.9 6.9 6.9 6.9 6.9 6.9 7.0 6.9 6.8 6.7 6.6 6.6
7.4 7.5 7.7 7.7 7.6 7.6 7.6 7.5 7.2 7.1 7.0 6.9 6.9 6.8 6.5 6.4 6.6 6.8 7.0 6.8 6.8 6.9 6.9 7.0 7.0 7.0 7.1 7.2 7.1 7.0 6.9 7.1 7.0 7.0 7.0 6.9 6.9 6.9 6.9 7.0 7.0 7.0 7.0 6.9 6.9 6.9 6.8 6.8 6.8 6.6 6.5 6.5 6.4 6.3
7.5 7.5 7.5 7.5 7.4 7.4 7.3 7.3 7.3 7.3 7.0 6.8 6.6 6.5 6.6 6.6 7.0 7.1 6.8 6.8 6.9 6.9 6.9 6.9 6.8 6.9 6.9 6.9 6.9 6.8 6.8 6.9 6.9 6.9 6.9 6.9 6.9 6.9 6.8 6.8 6.9 6.9 6.9 6.8 6.8 6.7 6.6 6.5 6.4 6.4 6.3 6.2 6.2 6.0
7.5 7.6 7.5 7.6 7.5 7.4 7.4 7.3 7.3 7.2 7.4 7.0 6.8 6.5 6.4 6.7 6.7 6.6 6.7 6.7 6.7 6.8 6.8 6.9 6.8 6.8 6.8 6.8 6.8 6.8 6.8 6.7 6.8 6.8 6.9 6.9 6.9 6.9 6.8 6.8 6.7 6.7 6.7 6.6 6.5 6.4 6.4 6.4 6.3 6.2 6.1 6.0 5.8 5.6
7.2 7.2 7.3 7.7 7.8 7.9 7.8 7.5 7.4 7.2 7.0 7.0 7.1 7.1 7.0 6.8 6.9 6.6 6.7 6.6 6.6 6.7 6.7 6.8 6.8 6.8 6.9 6.9 6.9 6.9 6.8 6.8 6.8 6.8 6.8 6.9 6.6 6.6 6.7 6.6 6.6 6.5 6.4 6.4 6.4 6.3 6.3 6.2 6.1 6.0 5.8 5.6 5.4 5.4
6.8 7.0 7.2 7.4 7.6 7.9 7.9 7.8 7.8 7.7 7.6 7.5 7.2 7.3 7.4 7.3 7.4 7.1 6.9 6.9 6.8 6.7 6.7 6.7 6.7 6.7 6.8 6.9 7.0 6.9 6.8 6.7 6.7 6.7 6.7 6.7 6.7 6.6 6.6 6.6 6.6 6.5 6.4 6.3 6.1 6.0 5.9 5.8 5.7 5.5 5.4 5.4 5.3 5.2
6.4 6.6 6.6 6.8 7.2 7.3 7.4 7.5 7.5 7.7 7.8 7.7 7.7 7.7 7.7 7.5 7.5 7.6 7.7 7.2 7.0 6.8 6.8 6.8 6.8 6.8 6.9 7.0 6.9 6.8 6.7 6.6 6.6 6.6 6.6 6.6 6.6 6.7 6.7 6.6 6.6 6.4 6.2 6.0 5.8 5.7 5.5 5.4 5.4 5.4 5.3 5.2 5.1 5.0
5.9 6.0 6.0 6.4 6.7 6.7 6.8 6.8 6.9 7.2 7.5 7.6 7.8 7.7 7.6 7.5 7.3 7.5 7.5 7.0 6.9 7.0 7.1 7.1 7.1 7.0 7.0 7.0 6.9 6.8 6.8 6.7 6.7 6.7 6.6 6.6 6.6 6.5 6.5 6.4 6.3 6.1 5.9 5.7 5.6 5.5 5.4 5.4 5.3 5.2 5.1 5.0 4.9 4.9
Wind_Speed
27 26 25 24 22 25 26 27 27 26 25 27 26 22 23 27 40 22 8 7 3 2 4 5 4 3 0 3 3 2 4 3 3 3 4 4 4 4 4 8 10 7 5 3 5 5 8 3 6 3 5 3 4 2
27 25 24 24 24 25 24 23 27 26 26 24 24 24 26 19 26 32 3 3 2 3 2 3 3 3 3 7 3 2 2 2 3 2 2 2 3 3 2 3 2 3 5 5 5 6 4 3 5 3 2 3 2 6
23 24 24 23 24 27 25 25 25 24 24 21 23 26 31 23 44 33 3 3 3 2 3 1 4 3 3 3 6 3 2 4 2 2 2 2 4 2 2 3 4 9 6 3 3 4 2 6 8 4 2 3 5 10
31 29 25 24 22 22 22 20 20 20 21 21 24 28 17 39 45 30 5 2 4 1 2 5 5 4 5 5 7 6 4 2 2 3 1 2 2 2 2 3 4 6 4 2 3 12 7 4 12 7 3 5 7 8
26 25 24 23 24 24 21 20 20 22 23 22 28 29 31 28 33 17 4 2 6 3 1 3 6 7 7 8 9 7 7 4 2 2 3 3 3 3 2 3 5 5 4 4 3 8 3 7 11 9 7 5 7 7
28 28 24 25 25 21 22 24 22 24 26 29 30 30 38 32 27 5 2 1 4 2 1 2 3 4 7 7 9 6 5 4 4 3 2 3 4 1 3 3 6 5 5 8 5 4 4 3 5 4 7 7 7 7
28 25 21 20 21 23 24 24 23 25 21 28 30 34 27 29 10 3 3 4 16 4 2 2 3 3 8 5 4 3 5 3 3 3 4 3 2 1 3 7 5 12 13 5 4 6 2 2 3 3 8 7 8 7
13 14 16 10 14 16 22 20 24 30 33 32 35 34 31 25 13 3 3 15 12 3 1 1 3 1 4 1 3 3 2 2 2 3 1 2 3 4 6 7 11 15 14 11 8 5 1 6 7 7 8 5 7 7
23 21 22 22 22 25 28 29 32 34 36 38 36 29 8 4 2 2 15 14 8 3 3 2 2 2 3 2 2 2 1 2 2 4 4 4 3 7 9 10 9 12 8 6 7 6 5 7 8 8 7 6 7 6
26 24 25 25 26 29 31 34 37 39 35 29 7 4 3 1 24 11 2 2 1 1 1 2 2 3 4 2 3 2 2 3 4 6 4 5 5 13 13 13 11 11 5 9 8 5 5 5 7 7 6 6 7 7
26 27 28 29 30 31 34 36 33 28 12 3 3 2 3 19 3 1 3 3 3 2 3 4 6 3 3 3 4 4 2 3 3 5 5 3 3 4 9 12 4 4 5 7 7 6 6 7 7 7 7 7 8 8
25 25 27 30 32 33 30 22 13 5 2 6 6 5 3 2 2 3 3 3 5 5 5 4 4 6 2 3 2 2 3 2 3 6 2 2 2 4 5 8 8 8 6 6 7 8 8 9 9 9 8 7 7 8
22 23 25 27 27 23 19 19 17 21 9 3 4 3 2 1 3 7 7 4 3 3 4 3 2 3 1 2 1 2 4 4 1 2 3 3 1 6 5 7 8 7 7 8 11 11 11 9 10 11 9 6 8 8
22 18 22 21 19 21 20 14 6 3 2 2 3 4 3 3 4 3 1 1 2 2 3 4 2 3 3 3 2 3 2 2 2 1 3 0 3 6 5 7 10 7 9 11 10 10 10 11 9 8 7 5 8 7
12 13 18 16 16 14 11 10 9 2 2 2 2 1 3 2 1 2 1 1 1 2 3 3 2 2 2 2 2 2 2 3 4 2 1 1 4 5 5 6 7 7 6 7 5 8 8 8 9 8 5 5 7 6
5 8 5 16 16 11 9 6 4 2 2 1 2 1 2 1 1 1 1 2 1 2 3 2 2 4 2 2 4 5 3 4 1 1 1 1 3 4 5 6 5 5 6 7 7 7 7 6 8 8 5 5 5 6
6 2 16 15 13 9 3 3 2 2 1 2 1 0 2 1 1 1 1 2 3 1 1 1 3 5 3 3 3 1 1 1 2 2 1 3 3 3 4 5 4 5 7 8 8 8 8 6 6 7 7 2 5 5
4 11 18 15 8 2 2 0 1 0 1 2 2 1 0 1 2 2 2 2 2 0 2 1 3 2 3 2 1 1 2 2 2 2 2 2 3 3 4 5 4 4 5 6 5 4 5 6 5 4 7 6 6 5
7 7 10 8 3 3 1 1 2 1 1 2 2 2 1 1 2 3 2 4 3 2 2 2 0 1 2 1 2 2 3 2 2 2 2 3 3 3 4 4 4 4 5 5 6 4 3 5 5 5 5 5 5 4
10 11 14 7 2 2 1 3 3 1 1 2 1 2 1 2 2 1 2 3 1 1 1 1 1 1 1 2 1 1 2 4 4 3 2 2 1 3 4 3 2 5 4 6 5 4 4 6 4 4 2 3 5 6
6 3 5 5 2 3 2 2 2 1 1 2 1 2 2 0 1 1 1 2 2 1 1 1 2 2 1 1 1 2 3 2 2 2 3 3 2 2 4 2 3 3 3 3 4 4 6 4 3 3 5 5 4 4
1 2 2 4 2 2 2 2 1 1 1 2 1 1 1 1 1 1 1 1 1 1 1 1 2 2 2 2 2 4 4 5 4 5 7 6 3 2 2 2 3 4 3 3 4 5 5 4 4 5 5 5 5 5
2 1 2 1 1 2 4 4 1 2 1 2 0 1 1 0 1 1 2 1 1 0 1 2 3 4 5 3 3 3 4 5 3 3 3 4 4 4 4 4 3 5 4 2 5 5 5 6 5 5 5 4 5 4
4 3 2 1 1 2 2 2 2 2 3 2 1 2 1 1 0 1 3 2 1 2 2 4 3 4 3 4 3 3 2 3 4 3 3 5 4 3 4 4 4 4 2 2 4 5 5 6 6 4 5 5 4 5
3 4 2 3 2 0 1 1 1 2 2 3 1 2 1 1 2 3 3 2 4 2 2 2 2 2 3 3 2 2 4 3 4 4 1 4 3 3 4 5 4 4 3 2 1 5 5 5 6 6 6 6 6 6
0 2 0 1 2 1 2 2 3 3 1 1 3 1 0 0 2 4 1 2 1 1 2 3 2 2 3 5 6 3 1 0 4 4 2 3 3 3 5 5 3 0 1 1 1 4 6 5 5 7 5 7 10 9
1 2 2 1 2 3 2 1 2 0 2 3 2 2 2 3 4 1 1 2 2 2 2 2 2 1 4 4 4 4 4 4 4 5 5 5 4 4 3 3 6 2 2 2 2 1 4 4 5 4 4 6 9 9
1 1 1 2 2 1 2 2 1 3 3 1 2 1 3 4 1 1 1 1 0 1 2 3 4 4 4 4 5 5 5 5 7 7 6 5 4 3 4 4 4 7 4 3 2 3 4 5 6 6 6 6 7 7
1 1 2 3 2 3 4 4 3 2 1 2 2 2 3 1 0 1 1 2 0 1 1 2 1 2 3 2 3 3 4 5 6 6 6 3 3 1 2 3 4 3 4 5 8 7 8 8 9 8 9 8 7 8
1 2 2 2 3 4 3 1 0 1 2 1 1 2 1 1 1 2 2 1 1 2 2 2 4 3 3 3 2 3 1 2 2 2 5 6 5 5 5 5 5 4 5 5 6 8 13 11 11 8 8 7 7 7
1 1 2 3 3 1 1 2 2 1 2 3 3 5 5 2 1 2 2 2 2 4 3 4 4 2 4 4 4 4 2 1 3 4 5 6 6 6 5 5 6 5 4 4 4 5 7 7 7 8 8 8 9 8
2 4 2 3 3 1 2 2 2 2 2 3 4 4 2 2 3 2 3 1 1 1 1 1 3 3 2 4 4 3 6 5 3 3 7 5 5 6 5 4 5 5 5 5 6 5 8 8 7 8 8 10 9 9
3 2 3 3 2 2 1 0 3 3 2 2 2 2 1 1 3 1 1 3 2 3 4 2 1 5 6 6 7 6 7 6 7 8 10 9 8 6 4 3 4 5 7 6 6 8 10 12 9 10 10 10 9 9
Wind_Direction
277 273 269 261 252 255 249 245 241 242 237 234 224 233 236 247 201 178 208 248 167 190 291 22 25 94 327 62 144 257 48 349 50 131 186 221 245 247 250 262 256 251 203 189 209 231 260 342 117 173 216 182 175 116
278 272 265 257 252 258 255 244 246 237 230 226 221 229 234 188 162 172 205 178 97 73 278 315 292 277 53 105 110 52 138 356 148 169 221 308 314 335 298 265 97 287 200 179 194 219 224 202 169 246 279 202 175 126
277 272 263 256 242 235 243 255 230 223 219 220 225 223 208 216 181 187 154 121 77 62 327 17 254 265 133 150 148 131 271 130 161 163 189 252 263 331 278 280 357 355 312 223 337 264 188 337 317 303 217 325 120 128
271 263 260 256 246 236 242 241 227 224 220 227 229 213 195 189 170 180 164 131 94 159 159 267 201 228 217 177 188 182 192 24 106 114 172 253 265 274 258 250 264 242 266 274 285 283 320 327 254 200 152 112 93 116
266 264 257 259 248 243 241 231 234 228 227 240 209 184 164 167 166 154 112 139 134 142 200 274 324 235 200 198 199 199 173 163 144 131 191 235 257 265 275 246 250 216 226 186 215 254 203 201 214 192 144 137 136 125
259 257 259 262 243 240 232 240 241 234 238 197 184 163 167 173 140 115 93 213 167 118 66 307 301 262 215 194 189 195 184 162 154 174 175 218 240 192 255 250 242 181 174 198 221 188 154 116 84 96 130 137 121 128
249 248 231 236 221 236 230 220 234 193 171 147 141 151 156 141 124 97 159 149 162 111 134 299 270 242 216 171 187 172 176 175 160 191 198 211 207 233 266 247 303 292 293 305 160 111 75 138 159 90 109 103 112 111
183 183 197 186 129 122 155 113 122 124 139 144 136 132 118 107 112 79 15 130 121 100 137 237 261 255 16 134 129 359 114 97 188 181 227 213 181 202 245 244 247 252 259 266 190 185 189 148 123 103 104 110 113 117
90 101 106 103 104 101 106 114 108 109 108 108 105 98 76 57 93 111 111 78 67 102 174 177 217 246 21 86 80 63 105 212 176 215 195 183 201 226 228 236 242 252 243 221 158 142 151 137 144 132 137 147 122 117
93 98 104 105 107 109 110 109 108 110 110 105 75 67 84 142 119 109 50 90 98 207 263 234 245 232 145 153 173 167 192 214 205 223 165 215 246 242 243 231 244 272 175 129 121 150 146 147 144 142 142 130 131 127
83 89 92 95 99 103 107 109 111 109 85 51 71 72 95 136 63 67 138 168 160 219 209 224 205 172 202 153 205 201 201 210 219 180 193 201 257 253 239 225 173 103 117 133 162 184 194 152 137 121 106 118 121 126
80 86 92 100 105 109 108 100 79 49 48 103 98 76 71 136 137 149 164 183 200 221 185 191 215 190 174 166 137 220 237 214 267 139 189 265 271 9 18 90 97 70 17 87 90 83 92 103 108 104 99 96 93 106
75 92 101 109 108 101 87 85 84 120 107 71 65 101 160 108 152 175 184 197 203 219 182 178 104 117 68 60 145 226 229 232 336 69 223 217 8 12 81 82 77 82 94 69 70 69 76 72 83 102 99 98 104 99
58 91 104 99 97 98 99 86 62 326 68 97 140 139 194 171 238 189 337 58 264 309 84 102 111 147 151 153 181 252 270 24 346 222 219 283 14 346 60 78 81 62 69 75 72 80 79 85 77 63 87 111 116 117
76 97 118 108 110 104 93 64 29 41 68 68 75 211 208 229 121 192 210 311 281 309 140 104 95 131 133 138 224 187 9 261 206 231 100 46 15 9 76 95 101 92 87 83 81 92 91 96 101 99 86 95 107 112
76 95 104 129 116 103 81 25 17 35 30 90 235 301 288 351 232 308 302 271 228 275 94 125 157 169 177 199 185 208 203 219 139 61 34 25 69 43 62 76 94 105 105 113 112 109 107 105 120 120 102 95 106 121
51 47 136 123 112 101 47 353 29 31 3 296 278 134 182 226 299 343 287 267 328 88 151 193 197 191 156 194 212 136 99 78 136 118 83 45 80 92 83 84 78 97 109 117 118 122 123 110 113 111 111 95 105 110
73 115 128 133 142 172 218 159 83 39 301 315 341 51 69 218 275 264 260 273 275 16 103 266 297 158 180 186 50 138 133 94 65 83 104 88 72 89 97 109 104 118 118 122 121 121 125 134 125 118 127 125 117 121
115 117 153 190 248 312 104 277 148 246 199 150 274 251 156 229 235 258 261 275 259 248 299 235 185 53 105 60 116 112 152 157 150 133 97 86 92 97 110 107 113 121 128 129 129 134 156 178 143 146 148 149 145 137
166 179 192 207 322 304 258 235 196 219 75 184 211 279 203 216 224 247 272 270 263 236 272 33 89 102 126 161 180 151 132 126 129 137 129 117 120 131 158 154 133 123 114 107 103 105 89 76 63 80 112 163 142 149
186 187 215 175 237 219 257 323 19 128 318 252 217 218 245 173 230 184 275 314 6 330 97 94 135 116 52 88 83 91 81 96 139 166 142 136 109 90 81 88 129 109 112 108 105 80 89 98 94 78 79 80 83 88
95 192 237 191 285 330 27 320 290 262 250 246 264 230 252 190 251 284 291 137 247 84 54 104 130 160 127 84 63 94 112 98 75 87 92 116 134 127 119 121 98 104 101 109 114 115 109 104 99 93 95 91 81 91
309 251 351 355 31 13 260 351 271 252 236 263 263 255 226 211 215 3 256 168 113 312 101 90 129 142 125 119 104 87 121 125 103 99 104 103 97 92 84 70 95 119 110 80 108 120 120 110 103 106 106 105 111 103
28 55 52 347 356 268 343 321 306 290 6 303 249 270 174 166 45 256 265 176 158 131 126 156 136 126 124 131 119 114 106 111 111 94 95 107 103 93 97 97 82 64 64 112 120 129 131 128 128 132 134 128 131 129
63 308 57 291 292 30 269 272 291 300 241 218 306 293 215 137 237 234 232 168 178 170 158 153 132 176 155 134 114 103 157 141 132 110 53 122 121 111 95 84 79 57 25 65 133 151 146 148 152 157 156 157 147 137
232 248 93 258 268 217 234 270 210 230 281 284 247 130 45 303 253 246 69 23 60 104 160 182 183 181 159 164 156 156 179 49 131 112 58 73 87 140 155 153 150 166 5 20 56 150 152 165 166 161 165 164 148 135
259 260 233 184 303 307 326 277 307 310 242 228 237 175 184 234 245 112 126 10 42 15 22 36 14 194 133 117 100 89 74 47 83 110 98 81 62 47 52 159 149 159 91 36 19 124 149 144 141 143 131 125 142 143
253 339 189 256 323 298 228 308 220 231 248 279 48 244 215 219 218 101 92 45 68 62 70 53 26 33 102 115 116 109 92 91 88 88 81 66 51 64 72 56 61 87 67 35 55 87 103 111 113 106 99 106 118 124
297 14 18 293 287 259 217 206 229 244 100 105 156 273 334 36 110 124 176 165 171 289 152 127 93 71 68 79 101 115 138 152 156 162 171 149 157 137 128 117 96 76 74 68 61 81 90 99 104 102 94 92 96 104
358 31 293 218 184 247 241 199 187 33 4 333 290 334 315 150 154 107 127 141 194 229 246 168 155 150 154 143 139 124 73 102 32 201 205 179 171 144 139 134 128 109 96 86 92 91 89 93 91 84 88 94 100 104
288 333 254 236 265 251 46 320 289 240 195 227 229 239 243 211 181 190 184 195 203 247 212 158 162 183 171 164 160 147 138 58 64 76 92 106 122 131 131 125 123 118 114 114 100 103 106 101 107 112 111 111 109 112
232 224 253 265 281 141 212 230 257 254 252 205 223 200 171 165 224 131 12 10 99 331 331 339 167 172 136 100 84 83 114 126 132 111 114 117 114 115 113 115 125 140 148 135 129 130 125 126 120 119 122 120 112 112
235 240 244 268 280 267 119 125 270 273 241 249 243 200 207 223 219 117 343 28 27 3 307 264 205 126 116 102 97 86 74 75 85 97 104 106 106 109 102 100 107 111 111 112 113 118 117 121 120 113 113 116 115 113